Year,Month,Day,Hour,Minute,Value (Times are PST for temperature in C)
2007,06,30,00,00,10.00
2007,06,30,00,01,10.00
2007,06,30,00,02,10.00
2007,06,30,00,03,10.10
2007,06,30,00,04,10.10
2007,06,30,00,05,10.10
2007,06,30,00,06,10.30
2007,06,30,00,07,10.30
2007,06,30,00,08,10.40
2007,06,30,00,09,10.50
2007,06,30,00,10,10.60
2007,06,30,00,11,10.70
2007,06,30,00,12,10.70
2007,06,30,00,13,10.80
2007,06,30,00,14,10.80
2007,06,30,00,15,10.80
2007,06,30,00,16,10.80
2007,06,30,00,17,10.80
2007,06,30,00,18,10.90
2007,06,30,00,19,10.90
2007,06,30,00,20,10.90
2007,06,30,00,21,10.90
2007,06,30,00,22,11.00
2007,06,30,00,23,11.00
2007,06,30,00,24,11.00
2007,06,30,00,25,11.00
2007,06,30,00,26,11.10
2007,06,30,00,27,11.10
2007,06,30,00,28,11.10
2007,06,30,00,29,11.10
2007,06,30,00,30,11.10
2007,06,30,00,31,11.10
2007,06,30,00,32,11.10
2007,06,30,00,33,11.10
2007,06,30,00,34,11.10
2007,06,30,00,35,11.10
2007,06,30,00,36,11.10
2007,06,30,00,37,11.10
2007,06,30,00,38,11.10
2007,06,30,00,39,11.10
2007,06,30,00,40,11.10
2007,06,30,00,41,11.10
2007,06,30,00,42,11.10
2007,06,30,00,43,11.10
2007,06,30,00,44,11.10
2007,06,30,00,45,11.20
2007,06,30,00,46,11.20
2007,06,30,00,47,11.20
2007,06,30,00,48,11.20
2007,06,30,00,49,11.20
2007,06,30,00,50,11.20
2007,06,30,00,51,11.20
2007,06,30,00,52,11.20
2007,06,30,00,53,11.20
2007,06,30,00,54,11.20
2007,06,30,00,55,11.20
2007,06,30,00,56,11.20
2007,06,30,00,57,11.20
2007,06,30,00,58,11.10
2007,06,30,00,59,11.10
2007,06,30,01,00,11.10
2007,06,30,01,01,11.00
2007,06,30,01,02,11.00
2007,06,30,01,03,10.90
2007,06,30,01,04,10.90
2007,06,30,01,05,10.90
2007,06,30,01,06,10.80
2007,06,30,01,07,10.80
2007,06,30,01,08,10.80
2007,06,30,01,09,10.80
2007,06,30,01,10,10.70
2007,06,30,01,11,10.70
2007,06,30,01,12,10.70
2007,06,30,01,13,10.60
2007,06,30,01,14,10.60
2007,06,30,01,15,10.50
2007,06,30,01,16,10.40
2007,06,30,01,17,10.30
2007,06,30,01,18,10.30
2007,06,30,01,19,10.20
2007,06,30,01,20,10.10
2007,06,30,01,21,10.10
2007,06,30,01,22,10.00
2007,06,30,01,23,10.00
2007,06,30,01,24,9.90
2007,06,30,01,25,9.80
2007,06,30,01,26,9.80
2007,06,30,01,27,9.70
2007,06,30,01,28,9.60
2007,06,30,01,29,9.60
2007,06,30,01,30,9.50
2007,06,30,01,31,9.40
2007,06,30,01,32,9.30
2007,06,30,01,33,9.30
2007,06,30,01,34,9.20
2007,06,30,01,35,9.20
2007,06,30,01,36,9.10
2007,06,30,01,37,9.10
2007,06,30,01,38,9.00
2007,06,30,01,39,8.90
2007,06,30,01,40,8.90
2007,06,30,01,41,8.80
2007,06,30,01,42,8.80
2007,06,30,01,43,8.80
2007,06,30,01,44,8.70
2007,06,30,01,45,8.70
2007,06,30,01,46,8.70
2007,06,30,01,47,8.60
2007,06,30,01,48,8.60
2007,06,30,01,49,8.50
2007,06,30,01,50,8.50
2007,06,30,01,51,8.50
2007,06,30,01,52,8.40
2007,06,30,01,53,8.40
2007,06,30,01,54,8.40
2007,06,30,01,55,8.50
2007,06,30,01,56,8.50
2007,06,30,01,57,8.50
2007,06,30,01,58,8.50
2007,06,30,01,59,8.50
2007,06,30,02,00,8.50
2007,06,30,02,01,8.40
2007,06,30,02,02,8.40
2007,06,30,02,03,8.40
2007,06,30,02,04,8.30
2007,06,30,02,05,8.30
2007,06,30,02,06,8.30
2007,06,30,02,07,8.20
2007,06,30,02,08,8.20
2007,06,30,02,09,8.20
2007,06,30,02,10,8.30
2007,06,30,02,11,8.40
2007,06,30,02,12,8.50
2007,06,30,02,13,8.60
2007,06,30,02,14,8.80
2007,06,30,02,15,8.90
2007,06,30,02,16,8.90
2007,06,30,02,17,9.00
2007,06,30,02,18,9.10
2007,06,30,02,19,9.10
2007,06,30,02,20,9.20
2007,06,30,02,21,9.20
2007,06,30,02,22,9.20
2007,06,30,02,23,9.20
2007,06,30,02,24,9.10
2007,06,30,02,25,9.10
2007,06,30,02,26,9.00
2007,06,30,02,27,9.00
2007,06,30,02,28,8.90
2007,06,30,02,29,8.90
2007,06,30,02,30,8.80
2007,06,30,02,31,8.80
2007,06,30,02,32,8.80
2007,06,30,02,33,8.70
2007,06,30,02,34,8.70
2007,06,30,02,35,8.70
2007,06,30,02,36,8.60
2007,06,30,02,37,8.60
2007,06,30,02,38,8.60
2007,06,30,02,39,8.50
2007,06,30,02,40,8.50
2007,06,30,02,41,8.40
2007,06,30,02,42,8.40
2007,06,30,02,43,8.40
2007,06,30,02,44,8.40
2007,06,30,02,45,8.40
2007,06,30,02,46,8.40
2007,06,30,02,47,8.40
2007,06,30,02,48,8.40
2007,06,30,02,49,8.40
2007,06,30,02,50,8.40
2007,06,30,02,51,8.40
2007,06,30,02,52,8.40
2007,06,30,02,53,8.40
2007,06,30,02,54,8.40
2007,06,30,02,55,8.40
2007,06,30,02,56,8.40
2007,06,30,02,57,8.40
2007,06,30,02,58,8.40
2007,06,30,02,59,8.40
2007,06,30,03,00,8.40
2007,06,30,03,01,8.40
2007,06,30,03,02,8.40
2007,06,30,03,03,8.40
2007,06,30,03,04,8.40
2007,06,30,03,05,8.30
2007,06,30,03,06,8.30
2007,06,30,03,07,8.30
2007,06,30,03,08,8.30
2007,06,30,03,09,8.30
2007,06,30,03,10,8.30
2007,06,30,03,11,8.20
2007,06,30,03,12,8.20
2007,06,30,03,13,8.20
2007,06,30,03,14,8.20
2007,06,30,03,15,8.20
2007,06,30,03,16,8.20
2007,06,30,03,17,8.20
2007,06,30,03,18,8.20
2007,06,30,03,19,8.10
2007,06,30,03,20,8.10
2007,06,30,03,21,8.10
2007,06,30,03,22,8.10
2007,06,30,03,23,8.10
2007,06,30,03,24,8.10
2007,06,30,03,25,8.10
2007,06,30,03,26,8.10
2007,06,30,03,27,8.00
2007,06,30,03,28,8.00
2007,06,30,03,29,8.00
2007,06,30,03,30,8.00
2007,06,30,03,31,8.00
2007,06,30,03,32,8.00
2007,06,30,03,33,7.90
2007,06,30,03,34,7.90
2007,06,30,03,35,7.90
2007,06,30,03,36,7.90
2007,06,30,03,37,7.90
2007,06,30,03,38,7.90
2007,06,30,03,39,7.90
2007,06,30,03,40,7.90
2007,06,30,03,41,7.90
2007,06,30,03,42,7.90
2007,06,30,03,43,7.90
2007,06,30,03,44,7.90
2007,06,30,03,45,7.90
2007,06,30,03,46,7.90
2007,06,30,03,47,7.90
2007,06,30,03,48,7.80
2007,06,30,03,49,7.80
2007,06,30,03,50,7.80
2007,06,30,03,51,7.80
2007,06,30,03,52,7.70
2007,06,30,03,53,7.70
2007,06,30,03,54,7.70
2007,06,30,03,55,7.70
2007,06,30,03,56,7.70
2007,06,30,03,57,7.60
2007,06,30,03,58,7.60
2007,06,30,03,59,7.60
2007,06,30,04,00,7.60
2007,06,30,04,01,7.60
2007,06,30,04,02,7.60
2007,06,30,04,03,7.60
2007,06,30,04,04,7.60
2007,06,30,04,05,7.60
2007,06,30,04,06,7.60
2007,06,30,04,07,7.60
2007,06,30,04,08,7.60
2007,06,30,04,09,7.60
2007,06,30,04,10,7.60
2007,06,30,04,11,7.60
2007,06,30,04,12,7.60
2007,06,30,04,13,7.60
2007,06,30,04,14,7.60
2007,06,30,04,15,7.60
2007,06,30,04,16,7.60
2007,06,30,04,17,7.60
2007,06,30,04,18,7.60
2007,06,30,04,19,7.60
2007,06,30,04,20,7.60
2007,06,30,04,21,7.60
2007,06,30,04,22,7.70
2007,06,30,04,23,7.70
2007,06,30,04,24,7.70
2007,06,30,04,25,7.70
2007,06,30,04,26,7.70
2007,06,30,04,27,7.70
2007,06,30,04,28,7.70
2007,06,30,04,29,7.70
2007,06,30,04,30,7.70
2007,06,30,04,31,7.70
2007,06,30,04,32,7.70
2007,06,30,04,33,7.70
2007,06,30,04,34,7.70
2007,06,30,04,35,7.70
2007,06,30,04,36,7.70
2007,06,30,04,37,7.70
2007,06,30,04,38,7.80
2007,06,30,04,39,7.80
2007,06,30,04,40,7.80
2007,06,30,04,41,7.80
2007,06,30,04,42,7.80
2007,06,30,04,43,7.80
2007,06,30,04,44,7.80
2007,06,30,04,45,7.80
2007,06,30,04,46,7.80
2007,06,30,04,47,7.80
2007,06,30,04,48,7.90
2007,06,30,04,49,7.90
2007,06,30,04,50,7.90
2007,06,30,04,51,7.90
2007,06,30,04,52,7.90
2007,06,30,04,53,7.90
2007,06,30,04,54,7.90
2007,06,30,04,55,7.90
2007,06,30,04,56,7.90
2007,06,30,04,57,7.90
2007,06,30,04,58,7.90
2007,06,30,04,59,7.90
2007,06,30,05,00,7.90
2007,06,30,05,01,7.90
2007,06,30,05,02,7.90
2007,06,30,05,03,7.90
2007,06,30,05,04,8.00
2007,06,30,05,05,8.00
2007,06,30,05,06,8.00
2007,06,30,05,07,8.00
2007,06,30,05,08,8.00
2007,06,30,05,09,8.10
2007,06,30,05,10,8.10
2007,06,30,05,11,8.10
2007,06,30,05,12,8.10
2007,06,30,05,13,8.10
2007,06,30,05,14,8.10
2007,06,30,05,15,8.10
2007,06,30,05,16,8.10
2007,06,30,05,17,8.10
2007,06,30,05,18,8.10
2007,06,30,05,19,8.10
2007,06,30,05,20,8.10
2007,06,30,05,21,8.10
2007,06,30,05,22,8.20
2007,06,30,05,23,8.20
2007,06,30,05,24,8.20
2007,06,30,05,25,8.20
2007,06,30,05,26,8.20
2007,06,30,05,27,8.20
2007,06,30,05,28,8.20
2007,06,30,05,29,8.20
2007,06,30,05,30,8.20
2007,06,30,05,31,8.20
2007,06,30,05,32,8.30
2007,06,30,05,33,8.30
2007,06,30,05,34,8.30
2007,06,30,05,35,8.30
2007,06,30,05,36,8.30
2007,06,30,05,37,8.30
2007,06,30,05,38,8.30
2007,06,30,05,39,8.30
2007,06,30,05,40,8.30
2007,06,30,05,41,8.30
2007,06,30,05,42,8.30
2007,06,30,05,43,8.40
2007,06,30,05,44,8.40
2007,06,30,05,45,8.40
2007,06,30,05,46,8.40
2007,06,30,05,47,8.40
2007,06,30,05,48,8.40
2007,06,30,05,49,8.40
2007,06,30,05,50,8.40
2007,06,30,05,51,8.50
2007,06,30,05,52,8.50
2007,06,30,05,53,8.50
2007,06,30,05,54,8.50
2007,06,30,05,55,8.60
2007,06,30,05,56,8.60
2007,06,30,05,57,8.60
2007,06,30,05,58,8.60
2007,06,30,05,59,8.60
2007,06,30,06,00,8.60
2007,06,30,06,01,8.60
2007,06,30,06,02,8.60
2007,06,30,06,03,8.60
2007,06,30,06,04,8.70
2007,06,30,06,05,8.70
2007,06,30,06,06,8.70
2007,06,30,06,07,8.70
2007,06,30,06,08,8.70
2007,06,30,06,09,8.80
2007,06,30,06,10,8.80
2007,06,30,06,11,8.80
2007,06,30,06,12,8.80
2007,06,30,06,13,8.80
2007,06,30,06,14,8.80
2007,06,30,06,15,8.90
2007,06,30,06,16,8.90
2007,06,30,06,17,8.90
2007,06,30,06,18,8.90
2007,06,30,06,19,8.90
2007,06,30,06,20,8.90
2007,06,30,06,21,8.90
2007,06,30,06,22,9.00
2007,06,30,06,23,9.00
2007,06,30,06,24,9.00
2007,06,30,06,25,9.10
2007,06,30,06,26,9.10
2007,06,30,06,27,9.10
2007,06,30,06,28,9.10
2007,06,30,06,29,9.10
2007,06,30,06,30,9.10
2007,06,30,06,31,9.20
2007,06,30,06,32,9.20
2007,06,30,06,33,9.20
2007,06,30,06,34,9.20
2007,06,30,06,35,9.30
2007,06,30,06,36,9.30
2007,06,30,06,37,9.30
2007,06,30,06,38,9.30
2007,06,30,06,39,9.40
2007,06,30,06,40,9.40
2007,06,30,06,41,9.40
2007,06,30,06,42,9.50
2007,06,30,06,43,9.50
2007,06,30,06,44,9.60
2007,06,30,06,45,9.60
2007,06,30,06,46,9.60
2007,06,30,06,47,9.70
2007,06,30,06,48,9.70
2007,06,30,06,49,9.70
2007,06,30,06,50,9.80
2007,06,30,06,51,9.80
2007,06,30,06,52,9.80
2007,06,30,06,53,9.90
2007,06,30,06,54,9.90
2007,06,30,06,55,10.00
2007,06,30,06,56,10.10
2007,06,30,06,57,10.10
2007,06,30,06,58,10.20
2007,06,30,06,59,10.20
2007,06,30,07,00,10.30
2007,06,30,07,01,10.30
2007,06,30,07,02,10.30
2007,06,30,07,03,10.40
2007,06,30,07,04,10.40
2007,06,30,07,05,10.50
2007,06,30,07,06,10.50
2007,06,30,07,07,10.60
2007,06,30,07,08,10.60
2007,06,30,07,09,10.70
2007,06,30,07,10,10.80
2007,06,30,07,11,10.80
2007,06,30,07,12,10.80
2007,06,30,07,13,10.90
2007,06,30,07,14,11.00
2007,06,30,07,15,11.00
2007,06,30,07,16,11.10
2007,06,30,07,17,11.10
2007,06,30,07,18,11.20
2007,06,30,07,19,11.20
2007,06,30,07,20,11.20
2007,06,30,07,21,11.30
2007,06,30,07,22,11.30
2007,06,30,07,23,11.30
2007,06,30,07,24,11.40
2007,06,30,07,25,11.40
2007,06,30,07,26,11.40
2007,06,30,07,27,11.40
2007,06,30,07,28,11.50
2007,06,30,07,29,11.50
2007,06,30,07,30,11.50
2007,06,30,07,31,11.50
2007,06,30,07,32,11.60
2007,06,30,07,33,11.60
2007,06,30,07,34,11.60
2007,06,30,07,35,11.70
2007,06,30,07,36,11.70
2007,06,30,07,37,11.70
2007,06,30,07,38,11.80
2007,06,30,07,39,11.80
2007,06,30,07,40,11.90
2007,06,30,07,41,11.90
2007,06,30,07,42,12.00
2007,06,30,07,43,12.10
2007,06,30,07,44,12.10
2007,06,30,07,45,12.20
2007,06,30,07,46,12.20
2007,06,30,07,47,12.30
2007,06,30,07,48,12.30
2007,06,30,07,49,12.40
2007,06,30,07,50,12.40
2007,06,30,07,51,12.50
2007,06,30,07,52,12.50
2007,06,30,07,53,12.60
2007,06,30,07,54,12.60
2007,06,30,07,55,12.70
2007,06,30,07,56,12.70
2007,06,30,07,57,12.70
2007,06,30,07,58,12.80
2007,06,30,07,59,12.80
2007,06,30,08,00,12.80
2007,06,30,08,01,12.90
2007,06,30,08,02,12.90
2007,06,30,08,03,12.90
2007,06,30,08,04,12.90
2007,06,30,08,05,13.00
2007,06,30,08,06,13.00
2007,06,30,08,07,13.00
2007,06,30,08,08,13.10
2007,06,30,08,09,13.10
2007,06,30,08,10,13.10
2007,06,30,08,11,13.20
2007,06,30,08,12,13.20
2007,06,30,08,13,13.20
2007,06,30,08,14,13.20
2007,06,30,08,15,13.20
2007,06,30,08,16,13.20
2007,06,30,08,17,13.20
2007,06,30,08,18,13.20
2007,06,30,08,19,13.20
2007,06,30,08,20,13.30
2007,06,30,08,21,13.30
2007,06,30,08,22,13.30
2007,06,30,08,23,13.30
2007,06,30,08,24,13.30
2007,06,30,08,25,13.40
2007,06,30,08,26,13.40
2007,06,30,08,27,13.40
2007,06,30,08,28,13.40
2007,06,30,08,29,13.40
2007,06,30,08,30,13.40
2007,06,30,08,31,13.40
2007,06,30,08,32,13.40
2007,06,30,08,33,13.40
2007,06,30,08,34,13.40
2007,06,30,08,35,13.40
2007,06,30,08,36,13.40
2007,06,30,08,37,13.40
2007,06,30,08,38,13.50
2007,06,30,08,39,13.60
2007,06,30,08,40,13.60
2007,06,30,08,41,13.70
2007,06,30,08,42,13.80
2007,06,30,08,43,13.80
2007,06,30,08,44,13.80
2007,06,30,08,45,13.80
2007,06,30,08,46,13.80
2007,06,30,08,47,13.90
2007,06,30,08,48,13.90
2007,06,30,08,49,13.90
2007,06,30,08,50,14.00
2007,06,30,08,51,14.00
2007,06,30,08,52,14.10
2007,06,30,08,53,14.10
2007,06,30,08,54,14.10
2007,06,30,08,55,14.20
2007,06,30,08,56,14.20
2007,06,30,08,57,14.20
2007,06,30,08,58,14.20
2007,06,30,08,59,14.20
2007,06,30,09,00,14.20
2007,06,30,09,01,14.10
2007,06,30,09,02,14.10
2007,06,30,09,03,14.10
2007,06,30,09,04,14.10
2007,06,30,09,05,14.10
2007,06,30,09,06,14.20
2007,06,30,09,07,14.20
2007,06,30,09,08,14.20
2007,06,30,09,09,14.20
2007,06,30,09,10,14.20
2007,06,30,09,11,14.30
2007,06,30,09,12,14.30
2007,06,30,09,13,14.40
2007,06,30,09,14,14.50
2007,06,30,09,15,14.60
2007,06,30,09,16,14.70
2007,06,30,09,17,14.90
2007,06,30,09,18,15.00
2007,06,30,09,19,15.00
2007,06,30,09,20,15.00
2007,06,30,09,21,15.10
2007,06,30,09,22,15.20
2007,06,30,09,23,15.20
2007,06,30,09,24,15.20
2007,06,30,09,25,15.20
2007,06,30,09,26,15.10
2007,06,30,09,27,15.10
2007,06,30,09,28,15.10
2007,06,30,09,29,15.00
2007,06,30,09,30,15.00
2007,06,30,09,31,15.00
2007,06,30,09,32,15.10
2007,06,30,09,33,15.00
2007,06,30,09,34,15.00
2007,06,30,09,35,15.00
2007,06,30,09,36,15.00
2007,06,30,09,37,15.00
2007,06,30,09,38,15.00
2007,06,30,09,39,15.00
2007,06,30,09,40,15.00
2007,06,30,09,41,15.00
2007,06,30,09,42,15.10
2007,06,30,09,43,15.30
2007,06,30,09,44,15.40
2007,06,30,09,45,15.50
2007,06,30,09,46,15.60
2007,06,30,09,47,15.70
2007,06,30,09,48,15.70
2007,06,30,09,49,15.70
2007,06,30,09,50,15.60
2007,06,30,09,51,15.50
2007,06,30,09,52,15.50
2007,06,30,09,53,15.40
2007,06,30,09,54,15.30
2007,06,30,09,55,15.30
2007,06,30,09,56,15.20
2007,06,30,09,57,15.10
2007,06,30,09,58,15.00
2007,06,30,09,59,15.00
2007,06,30,10,00,15.00
2007,06,30,10,01,15.00
2007,06,30,10,02,15.00
2007,06,30,10,03,15.00
2007,06,30,10,04,15.00
2007,06,30,10,05,15.00
2007,06,30,10,06,15.00
2007,06,30,10,07,15.00
2007,06,30,10,08,15.00
2007,06,30,10,09,14.90
2007,06,30,10,10,14.90
2007,06,30,10,11,14.80
2007,06,30,10,12,14.80
2007,06,30,10,13,14.80
2007,06,30,10,14,14.70
2007,06,30,10,15,14.50
2007,06,30,10,16,14.40
2007,06,30,10,17,14.40
2007,06,30,10,18,14.40
2007,06,30,10,19,14.40
2007,06,30,10,20,14.30
2007,06,30,10,21,14.30
2007,06,30,10,22,14.30
2007,06,30,10,23,14.30
2007,06,30,10,24,14.30
2007,06,30,10,25,14.30
2007,06,30,10,26,14.20
2007,06,30,10,27,14.20
2007,06,30,10,28,14.20
2007,06,30,10,29,14.20
2007,06,30,10,30,14.20
2007,06,30,10,31,14.20
2007,06,30,10,32,14.20
2007,06,30,10,33,14.20
2007,06,30,10,34,14.20
2007,06,30,10,35,14.20
2007,06,30,10,36,14.20
2007,06,30,10,37,14.20
2007,06,30,10,38,14.20
2007,06,30,10,39,14.30
2007,06,30,10,40,14.30
2007,06,30,10,41,14.30
2007,06,30,10,42,14.30
2007,06,30,10,43,14.30
2007,06,30,10,44,14.30
2007,06,30,10,45,14.30
2007,06,30,10,46,14.30
2007,06,30,10,47,14.30
2007,06,30,10,48,14.40
2007,06,30,10,49,14.40
2007,06,30,10,50,14.40
2007,06,30,10,51,14.40
2007,06,30,10,52,14.40
2007,06,30,10,53,14.50
2007,06,30,10,54,14.50
2007,06,30,10,55,14.50
2007,06,30,10,56,14.60
2007,06,30,10,57,14.60
2007,06,30,10,58,14.60
2007,06,30,10,59,14.60
2007,06,30,11,00,14.60
2007,06,30,11,01,14.60
2007,06,30,11,02,14.60
2007,06,30,11,03,14.60
2007,06,30,11,04,14.60
2007,06,30,11,05,14.60
2007,06,30,11,06,14.60
2007,06,30,11,07,14.60
2007,06,30,11,08,14.60
2007,06,30,11,09,14.60
2007,06,30,11,10,14.60
2007,06,30,11,11,14.60
2007,06,30,11,12,14.60
2007,06,30,11,13,14.60
2007,06,30,11,14,14.60
2007,06,30,11,15,14.60
2007,06,30,11,16,14.60
2007,06,30,11,17,14.60
2007,06,30,11,18,14.70
2007,06,30,11,19,14.70
2007,06,30,11,20,14.70
2007,06,30,11,21,14.70
2007,06,30,11,22,14.70
2007,06,30,11,23,14.70
2007,06,30,11,24,14.70
2007,06,30,11,25,14.70
2007,06,30,11,26,14.70
2007,06,30,11,27,14.70
2007,06,30,11,28,14.70
2007,06,30,11,29,14.70
2007,06,30,11,30,14.70
2007,06,30,11,31,14.60
2007,06,30,11,32,14.60
2007,06,30,11,33,14.60
2007,06,30,11,34,14.60
2007,06,30,11,35,14.60
2007,06,30,11,36,14.70
2007,06,30,11,37,14.70
2007,06,30,11,38,14.70
2007,06,30,11,39,14.70
2007,06,30,11,40,14.70
2007,06,30,11,41,14.70
2007,06,30,11,42,14.70
2007,06,30,11,43,14.80
2007,06,30,11,44,14.80
2007,06,30,11,45,14.80
2007,06,30,11,46,14.80
2007,06,30,11,47,14.80
2007,06,30,11,48,14.80
2007,06,30,11,49,14.80
2007,06,30,11,50,14.80
2007,06,30,11,51,14.80
2007,06,30,11,52,14.80
2007,06,30,11,53,14.80
2007,06,30,11,54,14.90
2007,06,30,11,55,14.90
2007,06,30,11,56,14.90
2007,06,30,11,57,14.90
2007,06,30,11,58,14.90
2007,06,30,11,59,14.80
2007,06,30,12,00,14.80
2007,06,30,12,01,14.80
2007,06,30,12,02,14.70
2007,06,30,12,03,14.70
2007,06,30,12,04,14.70
2007,06,30,12,05,14.70
2007,06,30,12,06,14.60
2007,06,30,12,07,14.60
2007,06,30,12,08,14.60
2007,06,30,12,09,14.60
2007,06,30,12,10,14.60
2007,06,30,12,11,14.60
2007,06,30,12,12,14.60
2007,06,30,12,13,14.60
2007,06,30,12,14,14.50
2007,06,30,12,15,14.50
2007,06,30,12,16,14.50
2007,06,30,12,17,14.50
2007,06,30,12,18,14.40
2007,06,30,12,19,14.40
2007,06,30,12,20,14.40
2007,06,30,12,21,14.40
2007,06,30,12,22,14.40
2007,06,30,12,23,14.40
2007,06,30,12,24,14.50
2007,06,30,12,25,14.50
2007,06,30,12,26,14.50
2007,06,30,12,27,14.50
2007,06,30,12,28,14.50
2007,06,30,12,29,14.50
2007,06,30,12,30,14.50
2007,06,30,12,31,14.60
2007,06,30,12,32,14.60
2007,06,30,12,33,14.60
2007,06,30,12,34,14.60
2007,06,30,12,35,14.60
2007,06,30,12,36,14.60
2007,06,30,12,37,14.70
2007,06,30,12,38,14.70
2007,06,30,12,39,14.70
2007,06,30,12,40,14.70
2007,06,30,12,41,14.70
2007,06,30,12,42,14.70
2007,06,30,12,43,14.70
2007,06,30,12,44,14.60
2007,06,30,12,45,14.60
2007,06,30,12,46,14.60
2007,06,30,12,47,14.60
2007,06,30,12,48,14.60
2007,06,30,12,49,14.60
2007,06,30,12,50,14.60
2007,06,30,12,51,14.50
2007,06,30,12,52,14.50
2007,06,30,12,53,14.50
2007,06,30,12,54,14.50
2007,06,30,12,55,14.50
2007,06,30,12,56,14.50
2007,06,30,12,57,14.60
2007,06,30,12,58,14.60
2007,06,30,12,59,14.60
2007,06,30,13,00,14.60
2007,06,30,13,01,14.60
2007,06,30,13,02,14.60
2007,06,30,13,03,14.60
2007,06,30,13,04,14.60
2007,06,30,13,05,14.60
2007,06,30,13,06,14.60
2007,06,30,13,07,14.60
2007,06,30,13,08,14.60
2007,06,30,13,09,14.60
2007,06,30,13,10,14.60
2007,06,30,13,11,14.60
2007,06,30,13,12,14.70
2007,06,30,13,13,14.70
2007,06,30,13,14,14.70
2007,06,30,13,15,14.70
2007,06,30,13,16,14.70
2007,06,30,13,17,14.70
2007,06,30,13,18,14.80
2007,06,30,13,19,14.80
2007,06,30,13,20,14.80
2007,06,30,13,21,14.80
2007,06,30,13,22,14.90
2007,06,30,13,23,14.90
2007,06,30,13,24,15.00
2007,06,30,13,25,15.00
2007,06,30,13,26,15.00
2007,06,30,13,27,15.00
2007,06,30,13,28,15.00
2007,06,30,13,29,15.00
2007,06,30,13,30,15.00
2007,06,30,13,31,15.00
2007,06,30,13,32,15.00
2007,06,30,13,33,15.00
2007,06,30,13,34,15.00
2007,06,30,13,35,15.00
2007,06,30,13,36,15.00
2007,06,30,13,37,15.00
2007,06,30,13,38,15.00
2007,06,30,13,39,15.10
2007,06,30,13,40,15.10
2007,06,30,13,41,15.20
2007,06,30,13,42,15.20
2007,06,30,13,43,15.20
2007,06,30,13,44,15.20
2007,06,30,13,45,15.30
2007,06,30,13,46,15.30
2007,06,30,13,47,15.30
2007,06,30,13,48,15.30
2007,06,30,13,49,15.30
2007,06,30,13,50,15.40
2007,06,30,13,51,15.40
2007,06,30,13,52,15.40
2007,06,30,13,53,15.40
2007,06,30,13,54,15.50
2007,06,30,13,55,15.50
2007,06,30,13,56,15.50
2007,06,30,13,57,15.50
2007,06,30,13,58,15.50
2007,06,30,13,59,15.50
2007,06,30,14,00,15.50
2007,06,30,14,01,15.60
2007,06,30,14,02,15.60
2007,06,30,14,03,15.60
2007,06,30,14,04,15.60
2007,06,30,14,05,15.60
2007,06,30,14,06,15.60
2007,06,30,14,07,15.60
2007,06,30,14,08,15.60
2007,06,30,14,09,15.60
2007,06,30,14,10,15.60
2007,06,30,14,11,15.60
2007,06,30,14,12,15.70
2007,06,30,14,13,15.70
2007,06,30,14,14,15.60
2007,06,30,14,15,15.60
2007,06,30,14,16,15.60
2007,06,30,14,17,15.70
2007,06,30,14,18,15.70
2007,06,30,14,19,15.70
2007,06,30,14,20,15.70
2007,06,30,14,21,15.80
2007,06,30,14,22,15.80
2007,06,30,14,23,15.80
2007,06,30,14,24,15.80
2007,06,30,14,25,15.90
2007,06,30,14,26,15.90
2007,06,30,14,27,15.90
2007,06,30,14,28,16.00
2007,06,30,14,29,16.10
2007,06,30,14,30,16.20
2007,06,30,14,31,16.30
2007,06,30,14,32,16.30
2007,06,30,14,33,16.40
2007,06,30,14,34,16.50
2007,06,30,14,35,16.60
2007,06,30,14,36,16.60
2007,06,30,14,37,16.70
2007,06,30,14,38,16.70
2007,06,30,14,39,16.80
2007,06,30,14,40,16.80
2007,06,30,14,41,16.80
2007,06,30,14,42,16.70
2007,06,30,14,43,16.70
2007,06,30,14,44,16.70
2007,06,30,14,45,16.70
2007,06,30,14,46,16.70
2007,06,30,14,47,16.70
2007,06,30,14,48,16.70
2007,06,30,14,49,16.70
2007,06,30,14,50,16.60
2007,06,30,14,51,16.50
2007,06,30,14,52,16.40
2007,06,30,14,53,16.30
2007,06,30,14,54,16.30
2007,06,30,14,55,16.30
2007,06,30,14,56,16.20
2007,06,30,14,57,16.20
2007,06,30,14,58,16.20
2007,06,30,14,59,16.20
2007,06,30,15,00,16.20
2007,06,30,15,01,16.20
2007,06,30,15,02,16.20
2007,06,30,15,03,16.20
2007,06,30,15,04,16.10
2007,06,30,15,05,16.10
2007,06,30,15,06,16.00
2007,06,30,15,07,16.00
2007,06,30,15,08,15.90
2007,06,30,15,09,15.80
2007,06,30,15,10,15.80
2007,06,30,15,11,15.80
2007,06,30,15,12,15.80
2007,06,30,15,13,15.80
2007,06,30,15,14,15.80
2007,06,30,15,15,15.80
2007,06,30,15,16,15.80
2007,06,30,15,17,15.80
2007,06,30,15,18,15.80
2007,06,30,15,19,15.80
2007,06,30,15,20,15.80
2007,06,30,15,21,15.80
2007,06,30,15,22,15.80
2007,06,30,15,23,15.80
2007,06,30,15,24,15.80
2007,06,30,15,25,15.80
2007,06,30,15,26,15.90
2007,06,30,15,27,15.90
2007,06,30,15,28,16.00
2007,06,30,15,29,16.00
2007,06,30,15,30,16.10
2007,06,30,15,31,16.10
2007,06,30,15,32,16.20
2007,06,30,15,33,16.20
2007,06,30,15,34,16.20
2007,06,30,15,35,16.20
2007,06,30,15,36,16.20
2007,06,30,15,37,16.20
2007,06,30,15,38,16.20
2007,06,30,15,39,16.20
2007,06,30,15,40,16.20
2007,06,30,15,41,16.20
2007,06,30,15,42,16.20
2007,06,30,15,43,16.10
2007,06,30,15,44,16.10
2007,06,30,15,45,16.10
2007,06,30,15,46,16.20
2007,06,30,15,47,16.20
2007,06,30,15,48,16.20
2007,06,30,15,49,16.30
2007,06,30,15,50,16.30
2007,06,30,15,51,16.50
2007,06,30,15,52,16.60
2007,06,30,15,53,16.70
2007,06,30,15,54,16.80
2007,06,30,15,55,17.00
2007,06,30,15,56,17.10
2007,06,30,15,57,17.10
2007,06,30,15,58,17.20
2007,06,30,15,59,17.20
2007,06,30,16,00,17.20
2007,06,30,16,01,17.20
2007,06,30,16,02,17.20
2007,06,30,16,03,17.20
2007,06,30,16,04,17.10
2007,06,30,16,05,17.20
2007,06,30,16,06,17.20
2007,06,30,16,07,17.10
2007,06,30,16,08,17.20
2007,06,30,16,09,17.20
2007,06,30,16,10,17.20
2007,06,30,16,11,17.20
2007,06,30,16,12,17.20
2007,06,30,16,13,17.20
2007,06,30,16,14,17.20
2007,06,30,16,15,17.10
2007,06,30,16,16,17.10
2007,06,30,16,17,17.10
2007,06,30,16,18,17.00
2007,06,30,16,19,17.00
2007,06,30,16,20,17.00
2007,06,30,16,21,17.00
2007,06,30,16,22,17.10
2007,06,30,16,23,17.10
2007,06,30,16,24,17.30
2007,06,30,16,25,17.40
2007,06,30,16,26,17.50
2007,06,30,16,27,17.60
2007,06,30,16,28,17.60
2007,06,30,16,29,17.50
2007,06,30,16,30,17.50
2007,06,30,16,31,17.50
2007,06,30,16,32,17.50
2007,06,30,16,33,17.50
2007,06,30,16,34,17.60
2007,06,30,16,35,17.60
2007,06,30,16,36,17.50
2007,06,30,16,37,17.50
2007,06,30,16,38,17.40
2007,06,30,16,39,17.40
2007,06,30,16,40,17.40
2007,06,30,16,41,17.30
2007,06,30,16,42,17.30
2007,06,30,16,43,17.30
2007,06,30,16,44,17.30
2007,06,30,16,45,17.30
2007,06,30,16,46,17.40
2007,06,30,16,47,17.40
2007,06,30,16,48,17.40
2007,06,30,16,49,17.50
2007,06,30,16,50,17.60
2007,06,30,16,51,17.60
2007,06,30,16,52,17.70
2007,06,30,16,53,17.70
2007,06,30,16,54,17.70
2007,06,30,16,55,17.80
2007,06,30,16,56,17.80
2007,06,30,16,57,17.80
2007,06,30,16,58,17.80
2007,06,30,16,59,17.80
2007,06,30,17,00,17.80
2007,06,30,17,01,17.80
2007,06,30,17,02,17.80
2007,06,30,17,03,17.80
2007,06,30,17,04,17.80
2007,06,30,17,05,17.80
2007,06,30,17,06,17.80
2007,06,30,17,07,17.90
2007,06,30,17,08,17.90
2007,06,30,17,09,17.90
2007,06,30,17,10,18.00
2007,06,30,17,11,18.00
2007,06,30,17,12,18.00
2007,06,30,17,13,18.10
2007,06,30,17,14,18.10
2007,06,30,17,15,18.20
2007,06,30,17,16,18.20
2007,06,30,17,17,18.20
2007,06,30,17,18,18.20
2007,06,30,17,19,18.10
2007,06,30,17,20,18.10
2007,06,30,17,21,18.10
2007,06,30,17,22,18.10
2007,06,30,17,23,18.10
2007,06,30,17,24,18.00
2007,06,30,17,25,18.00
2007,06,30,17,26,18.00
2007,06,30,17,27,18.00
2007,06,30,17,28,17.90
2007,06,30,17,29,17.90
2007,06,30,17,30,17.90
2007,06,30,17,31,17.90
2007,06,30,17,32,18.00
2007,06,30,17,33,17.90